遥感四十三号01组-G (YAOGAN-43 O1G)

导读

YAOGAN-43 O1G(遥感四十三号01组卫星)是中国于北京时间2024年8月16日15时35分,在西昌卫星发射中心通过长征四号乙运载火箭发射的低轨试验卫星。本次发射任务取得圆满成功,卫星顺利进入预定轨道,是长征系列运载火箭的第531次飞行,该卫星主要用于开展低轨星座系统新技术试验。

基本信息
目录编号:
60464
目录名称:
YAOGAN-43 O1G
国际标识:
2024-148G
轨道中心:
EARTH
卫星名称:
遥感四十三号01组-G (YAOGAN-43 O1G)
卫星全名:
遥感四十三号01组-G (YAOGAN-43 O1G)
卫星状态:
在轨 (已飞行756 天)
发射日期:
2024-08-16 UTC
国别 :
中国 (CN)
星等 :
--
轨道信息
数据来源 国际轨道数据 AOE轨道数据
星历时间 2026-09-10T23:58:07+0800
12小时前
查看轨道信息
2026-09-10T02:00:00+0800
1天前
查看轨道信息
半长轴 6851.547km 6851.574km
偏心率 0.0006552 0.0006443
轨道倾角 35.003° 35.003°
近地点辐角 221.317° 214.545°
升交点赤经 325.246° 331.071°
平近点角 138.706° 132.667°
近地点 468.92km 469.022km
远地点 477.9km 477.852km
周期 94.068分钟 94.069分钟
每日圈数 15.30805 15.30796
详细信息
运营商:
中国空间技术研究院
运营商所在国:
中国
制造商(研发单位):
中国空间技术研究院
制造商所在国:
中国
使用方式:
暂无
卫星简介
遥感四十三号卫星组分别由航天科技集团五院和八院等抓总研制,主要用于开展低轨星座系统新技术试验。
2D轨道图
3D轨道图
轨道高度分析图
轨道倾角分析图
轨道综合分析图
查看轨道综合分析图
交会数据列表
事件ID 空间交会对象 最接近时刻(TCA) 交会距离 交会风险概率(CRP) 交会风险指数(CRI) 操作
CDM_260911-102405-304506-046421
2026-09-11T
10:24:47+0000
0.312 km
远距离
4.451998E-4 高风险 0.88
CDM_260911-050604-830006-046421
2026-09-11T
05:06:03+0000
0.708 km
远距离
2.786522E-5 中风险 0.64
CDM_260911-132005-346506-046422
2026-09-11T
13:20:05+0000
1.270 km
极远距离
8.589269E-6 低风险 0.54
CDM_260911-161005-017906-046422
2026-09-11T
16:10:25+0000
1.419 km
极远距离
6.388901E-6 低风险 0.51
CDM_260912-000105-368006-046422
2026-09-12T
00:01:37+0000
1.538 km
极远距离
5.944145E-6 低风险 0.5
CDM_260913-072606-046406-754921
2026-09-13T
07:26:06+0000
2.094 km
极远距离
2.454427E-6 低风险 0.43
CDM_260911-101805-253506-046421
2026-09-11T
10:18:09+0000
1.743 km
极远距离
1.969444E-6 低风险 0.41
CDM_260912-092805-386906-046421
2026-09-12T
09:28:45+0000
2.518 km
极远距离
1.42265E-6 低风险 0.38
CDM_260912-075405-386906-046422
2026-09-12T
07:54:49+0000
2.697 km
极远距离
1.274039E-6 低风险 0.37
CDM_260912-141105-146306-046421
2026-09-12T
14:11:13+0000
2.712 km
极远距离
1.26166E-6 低风险 0.37
与全量物体交会距离演化趋势
与全量物体交会风险概率演化趋势